Tracking 21155 objects as of 15-Aug-2020
HD Live streaming from Space Station
objects crossing your sky now

FENGYUN 1C DEB

Track FENGYUN 1C DEB now!
10-day predictions


NORAD ID: 32178
Int'l Code: 1999-025CTY
Perigee: 778.7 km
Apogee: 935.6 km
Inclination: 100.3 °
Period: 101.9 minutes
Semi major axis: 7228 km
RCS: 0.0128 m2 (small)
Launch date: May 10, 1999
Source: People's Republic of China (PRC)
Launch site: Taiyaun Space Center, China (TSC)

Note: This is SATELLITE DEBRIS
aabbcc
Your satellite tracking list
Your tracking list is empty




NASA's NSSDC Master Catalog

Two Line Element Set (TLE):
1 32178U 99025CTY 20227.89999231 +.00000368 +00000-0 +21627-3 0  9997
2 32178 100.3043 262.7055 0108548 212.0883 147.3645 14.12743551364636
Source of the keplerian elements: AFSPC